Location: Anuling
(14.1239°N, 120.8922°E)
Time: 04:20:13
(UTC+00:00)

Meteor 1-24 Rocket - Pass Details

Date: 14 January 2026
Orbit: 790 x 925 km, 81.3° (Epoch: 10 February)

Event Time Altitude Azimuth Distance (km) Brightness Sun altitude
Rises 11:01:56 0° 167° (SSE) 3,300 6.9 -18.0°
Reaches altitude 10° 11:04:27 10° 159° (SSE) 2,384 6.0 -18.6°
Maximum altitude 11:09:22 37° 93° (E) 1,260 4.1 -19.7°
Enters shadow 11:09:43 37° 84° (E) 1,270 4.1 -19.8°
